User: anonymous   Login
Location: Peebles
(55.6412°N, 3.1714°W)
Time: 06:12:02
(UTC+00:00)
Language:

Cosmos 1300 Rocket - Orbit

View from above orbital plane
View from above orbital plane
View from above satellite
View from above satellite

Ground track
Ground track

The orbit data is extracted from the following two-line orbital elements,

1 12786U 81082B   21336.47368681  .00000148  00000-0  14587-4 0  9993
2 12786  82.4902 231.9451 0015973 276.8935  83.0464 14.84863168155488
Epoch (UTC): 02 December 2021 11:22:06
Eccentricity: 0.0015973
inclination: 82.4902°
perigee height: 603 km
apogee height: 625 km
right ascension of ascending node: 231.9451°
argument of perigee: 276.8935°
revolutions per day: 14.84863168
mean anomaly at epoch: 83.0464°
orbit number at epoch: 15548

The dashed part of the orbit path shows where the satellite is in the earth's shadow,  

DLR